Tracking 29892 objects as of 21-Nov-2024
HD Live streaming from Space Station
objects crossing your sky now

USA 238 DEB

Track USA 238 DEB now!
10-day predictions
USA 238 DEB is classified as:


NORAD ID: 38773
Int'l Code: 2012-048P
Perigee: 918.5 km
Apogee: 1,307.2 km
Inclination: 63.4 °
Period: 107.4 minutes
Semi major axis: 7483 km
RCS: Unknown
Launch date: September 13, 2012
Source: United States (US)
Launch site: AIR FORCE WESTERN TEST RANGE (AFWTR)

Note: This is SATELLITE DEBRIS
Your satellite tracking list
Your tracking list is empty




NASA's NSSDC Master Catalog

Two Line Element Set (TLE):
1 38773U 12048P   24324.80692313 0.00000000  00000-0  00000-0 0    03
2 38773  63.4313 233.8830 0259718 358.2293   1.7707 13.40951672    01
Source of the keplerian elements: McCants